Regional Weather Roundup
Issued by NWS Charleston, SC

Current Version | Previous Version | Graphics & Text | Print | Product List | Glossary On
Versions: 1 2 3 4 5 6 7 8 9 10 11 12 13 14 15 16 17 18 19 20 21 22 23 24 25 26 27 28 29 30 31 32 33 34 35 36 37 38 39 40 41 42 43 44 45 46 47 48 49 50
000
ASUS42 KCHS 240813
RWRCHS

REGIONAL WEATHER ROUNDUP
NATIONAL WEATHER SERVICE CHARLESTON SC
400 AM EDT SAT SEP 24 2016

NOTE: "FAIR" INDICATES FEW OR NO CLOUDS BELOW 12,000 FEET WITH NO
SIGNIFICANT WEATHER AND/OR OBSTRUCTIONS TO VISIBILITY.

NOT ALL STATIONS ARE QUALITY CONTROLLED. USE DATA WITH CAUTION...
ESPECIALLY DEWPOINT OBSERVATIONS.

SCZ027-030-031-034>040-042>050-240900-
...SOUTHEAST SOUTH CAROLINA...

CITY           SKY/WX    TMP DP  RH WIND       PRES   REMARKS
N CHARLESTON   PTCLDY    74  71  91 NW5       30.00R
WATERFRONT PRK   N/A     76  74  93 VRB3      29.97S
MOUNT PLEASANT FAIR      73  73 100 CALM      29.99S FOG
JOHNS ISLAND   CLOUDY    73  73 100 CALM      29.99S FOG
PINOPOLIS        N/A     75  75 100 N8        29.93S
MONCKS CORNER  FAIR      72  70  94 CALM      30.00S
SUMMERVILLE    FAIR      72  72 100 CALM      30.02R
BEAUFORT MCAS  PTCLDY    74  72  93 NW3       30.01S
BEAUFORT ARPT  FAIR      73  72  94 NW5       30.00S
HILTON HEAD IS CLEAR     75  73  94 N6        30.01R
WALTERBORO     MOSUNNY   72  72 100 NW3       30.02S
ALLENDALE      FAIR      72  72 100 CALM      30.02R

...SOUTHERN MIDLANDS AND PEE DEE...

CITY           SKY/WX    TMP DP  RH WIND       PRES   REMARKS
GEORGETOWN     FAIR      70  70 100 CALM      30.00S
KINGSTREE      FAIR      68  68 100 CALM      30.01F FOG
ORANGEBURG     CLOUDY    72  71  97 NW3       30.02F
BARNWELL       NOT AVBL
AIKEN          FAIR      66  64  94 CALM      30.08S
MANNING        FAIR      68  68 100 CALM      30.02S
COLUMBIA       CLEAR     70  67  90 CALM      30.03S
SUMTER         CLEAR     72  70  93 CALM      30.01S
FLORENCE       CLEAR     72  70  93 N6        30.02F
MYRTLE BEACH   CLEAR     72  64  78 N6        30.01F
N MYRTLE BEACH CLEAR     72  71  97 CALM      29.99S

$$

GAZ063-065-086>088-099>101-113>116-118-119-134>141-150-240900-
...SOUTHEAST GEORGIA...

CITY           SKY/WX    TMP DP  RH WIND       PRES   REMARKS
SAVANNAH ARPT  CLEAR     73  70  90 NW3       30.01F
HUNTER AAF     PTCLDY    73  73 100 NW5       29.98F
FORT STEWART   CLEAR     71  69  93 CALM      29.99S
STATESBORO     CLEAR     70  70 100 CALM      30.03S
SYLVANIA       NOT AVBL
CLAXTON        FAIR      68  68 100 CALM      30.02S

...CSRA...CENTRAL AND FAR SOUTHEAST GEORGIA...

CITY           SKY/WX    TMP DP  RH WIND       PRES   REMARKS
THOMSON        CLEAR     67  67 100 CALM      30.09S
AUGUSTA-BUSH   CLEAR     67  67 100 CALM      30.03S
AUGUSTA-DANIEL CLEAR     73  68  84 N7        30.04F
SWAINSBORO     FAIR      68  66  94 CALM      30.04S
VIDALIA        CLEAR     70  70 100 CALM      30.03S
EASTMAN        FAIR      68  68 100 CALM      30.06S FOG
HAZLEHURST     FAIR      71  71 100 CALM      30.02S
ALMA           PTCLDY    69  68  96 CALM      30.02S FOG
WAYCROSS       CLEAR     72  72 100 CALM      30.02S
JESUP          FAIR      70  70 100 CALM      30.02S
BAXLEY         FAIR      70  70 100 CALM      30.02S
BRUNSWICK      CLEAR     73  73 100 CALM      30.01S FOG
SAINT SIMONS   CLEAR     75  73  93 W3        30.01S

$$

SCZ027-028-034-036>038-045-046-048>050-GAZ119-141-240900-
...LAKE AND SUPPLEMENTAL COASTAL OBSERVATIONS...

STATION/POSITION TIME  TEMP    WIND        PRES    WAVE   SWELL
                       AIR SEA DIR/SP/G            HT/PER HT/PER/DIR
                 (UTC) (F)     (DEG/KT/KT) (MB)    (FT/S) (FT/S/D)
WINYAH BAY       0645   73     350/  3     1015.0
LAKE MURRAY      0720   72      CALM  /  2 1016.9S
ACE BASIN NERRS  0645   73        CALM     1016.0
FORT PULASKI     0748   76 81  310/  6/  7 1016.3F
SAPELO ISLAND    0700   76        CALM     1016.0

$$

ANZ835-935-AMZ111-154-330-350-352-354-370-450-454-472-240900-
...C-MAN AND BUOY OBSERVATIONS...

STATION/POSITION TIME  TEMP    WIND        PRES    WAVE   SWELL
                       AIR SEA DIR/SP/G            HT/PER HT/PER/DIR
                 (UTC) (F)     (DEG/KT/KT) (MB)    (FT/S) (FT/S/D)
BUOY 41004       0750   79 82   CALM  /  2 1014.2F   3/10   3/100/10
BUOY 41008       0750   79 82  290/ 12/ 14 1015.3F   3/12   3/ 70/12
FOLLY BEACH CMAN 0700   76      20/  6/  7 1015.5F
CAPERS NEARSHORE 0708   77 81   40/  8/ 10 1015.0F
FRIPP NEARSHORE  0708   76 81   20/  8/ 10 1015.5F


STATION/POSITION TIME  TEMP    WIND        PRES    WAVE   SWELL
                       AIR SEA DIR/SP/G            HT/PER HT/PER/DIR
                 (UTC) (F)     (DEG/KT/KT) (MB)    (FT/S) (FT/S/D)
5E ST. MARYS GA  NOT AVBL
FRYING PAN BUOY  0750   79 82   20/  2/  4 1014.4F   3/10   3/110/10
BUOY 41025       0750   77 81  360/ 10/ 12 1014.6F   5/11   5/110/11
CAPE LOOKOUT NC  0800   76      10/  7/  8 1014.9F
BUOY 41002       0750   82 83  250/  8/ 12 1014.7F   6/11   5/110/11
BUOY 41010       NOT AVBL
ST AUGUSTINE FL  0800   75 84  240/  4/  5 1016.9F


$$




USA.gov is the U.S. government's official web portal to all federal, state and local government web resources and services.